Timestamp[UTC];2m Lufttemperatur [degC] (tas);Stations-Luftdruck [Pa] (ps);relative Luftfeuchtigkeit [%] (hurs);spezifische Luftfeuchtigkeit [kg/kg] (huss);Niederschlagsmenge [mm] (pr);Windgeschwindigkeit in 2m [m/s] (sfcWind);Windrichtung [deg];maximale Windgeschwindigkeit [m/s] (wsgsmax);u-Windkomponente [m/s] (uas);v-Windkomponente [m/s] (vas);Sonneneinstrahlung [W/m2];Blitzrate [n];Blitzentfernung [km];Bodenfeuchte in 5cm Tiefe [vol%];Bodenfeuchte in 15cm Tiefe [vol%];Bodenfeuchte in 30cm Tiefe [vol%];Bodenfeuchte in 60cm Tiefe [vol%];Bodentemperatur in 5cm Tiefe [degC];Bodentemperatur in 15cm Tiefe [degC];Bodentemperatur in 30cm Tiefe [degC];Bodentemperatur in 60cm Tiefe [degC];Matrixpotential in 30cm Tiefe [kPa];Bodenfeuchte aus CRNS [vol%] (mrso);Neutronen Anzahl [N/h]
2021-07-01 00:00:00;13,4;100527;98;0,0094;0,0;0,7;338;2,1;0,68;-0,24;0;0;0;20,6;18,9;24,3;21,7;17,6;18,2;18,5;17,3;-12,0;24,7;1499
2021-07-01 01:00:00;13,3;100510;99;0,0094;0,0;0,5;284;1,3;0,12;-0,44;0;0;0;20,6;18,9;24,3;21,7;17,4;18,1;18,4;17,3;-12,0;24,6;1439
2021-07-01 02:00:00;13,2;100520;99;0,0093;0,07;0,5;323;1,7;0,37;-0,25;0;0;0;20,6;18,9;24,3;21,7;17,3;17,9;18,3;17,3;-11,9;25,1;1487
2021-07-01 03:00:00;13,1;100500;100;0,0093;0,13;0,6;333;2,0;0,57;-0,26;0;0;0;20,6;18,9;24,3;21,7;17,2;17,8;18,3;17,3;-12,0;25,1;1445
2021-07-01 04:00:00;13,1;100483;100;0,0093;0,37;0,9;344;2,2;0,83;-0,22;4;0;0;20,7;19,0;24,3;21,7;17,0;17,7;18,2;17,2;-12,0;25,3;1433
2021-07-01 05:00:00;13,1;100495;100;0,0094;0,26;0,7;342;2,3;0,66;-0,2;18;0;0;20,7;19,0;24,3;21,7;17,0;17,6;18,1;17,2;-12,0;25,3;1505
2021-07-01 06:00:00;13,2;100493;100;0,0094;0,51;0,7;339;2,1;0,63;-0,24;45;0;0;20,7;19,0;24,2;21,7;16,9;17,5;18,0;17,2;-12,0;25,3;1457
2021-07-01 07:00:00;13,4;100508;100;0,0095;0,57;0,6;328;1,6;0,5;-0,27;61;0;0;20,7;19,0;24,2;21,7;16,9;17,4;18,0;17,2;-12,0;25,3;1365
2021-07-01 08:00:00;13,6;100510;100;0,0097;1,14;0,5;284;1,2;0,13;-0,46;69;0;0;20,7;19,0;24,3;21,7;17,0;17,4;17,9;17,2;-12,0;25,1;1357
2021-07-01 09:00:00;13,9;100520;100;0,0099;0,73;0,6;310;1,8;0,4;-0,45;73;0;0;20,8;19,0;24,3;21,7;17,0;17,4;17,8;17,2;-12,0;25,1;1348
2021-07-01 10:00:00;14,2;100540;100;0,0101;1,4;0,8;341;2,3;0,75;-0,23;93;0;0;20,8;19,0;24,4;21,7;17,1;17,4;17,8;17,1;-12,0;25,2;1305
2021-07-01 11:00:00;14,7;100550;100;0,0104;1,46;0,7;347;2,2;0,7;-0,15;75;0;0;21,0;19,0;25,0;21,7;17,2;17,4;17,7;17,1;-12,0;25,4;1318
2021-07-01 12:00:00;15,0;100578;100;0,0106;0,51;1,1;348;3,6;1,1;-0,22;65;0;0;21,3;19,1;25,9;21,7;17,3;17,4;17,7;17,1;-12,0;25,5;1370
2021-07-01 13:00:00;15,3;100610;100;0,0108;0,02;0,8;335;2,8;0,71;-0,26;73;0;0;21,9;19,1;26,1;21,7;17,3;17,4;17,7;17,1;-11,9;25,9;1310
2021-07-01 14:00:00;15,5;100645;100;0,0109;0,0;0,6;284;1,8;0,14;-0,53;82;0;0;22,4;19,2;26,2;21,7;17,4;17,5;17,6;17,0;-11,9;26,1;1413
2021-07-01 15:00:00;15,7;100660;100;0,011;0,0;0,6;287;2,7;0,2;-0,57;121;0;0;22,9;19,3;26,2;21,6;17,5;17,5;17,6;17,0;-11,9;26,3;1356
2021-07-01 16:00:00;16,1;100688;99;0,0113;0,0;0,6;311;2,0;0,39;-0,46;114;0;0;23,3;19,4;26,1;21,6;17,7;17,5;17,6;17,0;-11,9;26,2;1373
2021-07-01 17:00:00;16,0;100703;97;0,0109;0,0;0,6;306;2,0;0,37;-0,47;51;0;0;23,6;19,4;26,1;21,6;17,8;17,6;17,6;17,0;-11,9;26,3;1400
2021-07-01 18:00:00;15,6;100735;96;0,0106;0,0;0,5;278;1,3;0,06;-0,48;25;0;0;23,9;19,5;26,0;21,6;17,8;17,7;17,6;17,0;-11,9;26,5;1423
2021-07-01 19:00:00;15,1;100790;97;0,0104;0,0;0,5;319;1,5;0,39;-0,33;7;0;0;24,1;19,6;26,0;21,6;17,7;17,7;17,6;16,9;-11,8;26,6;1441
2021-07-01 20:00:00;14,8;100835;98;0,0102;0,0;0,4;298;1,0;0,18;-0,32;0;0;0;24,2;19,6;26,0;21,6;17,5;17,6;17,6;16,9;-11,8;26,5;1358
2021-07-01 21:00:00;14,7;100870;96;0,0099;0,0;0,4;293;1,0;0,15;-0,36;0;0;0;24,3;19,7;25,9;21,6;17,4;17,6;17,6;16,9;-11,8;26,4;1372
2021-07-01 22:00:00;14,5;100878;95;0,0097;0,0;0,4;286;1,0;0,11;-0,38;0;0;0;24,5;19,7;25,9;21,6;17,2;17,5;17,5;16,9;-11,8;26,2;1369
2021-07-01 23:00:00;14,1;100857;96;0,0096;0,0;0,4;321;1,1;0,29;-0,22;0;0;0;24,6;19,7;25,9;21,6;17,1;17,4;17,5;16,9;-11,8;25,9;1371
2021-07-02 00:00:00;13,8;100850;97;0,0095;0,0;0,4;278;1,0;0,03;-0,42;0;0;0;24,6;19,8;25,9;21,6;16,9;17,3;17,5;16,8;-11,8;25,7;1335
2021-07-02 01:00:00;14,0;100827;97;0,0096;0,0;0,5;263;1,2;-0,06;-0,54;0;0;0;24,7;19,8;25,8;21,6;16,7;17,2;17,4;16,8;-11,7;25,5;1319
2021-07-02 02:00:00;14,0;100812;98;0,0097;0,0;0,7;260;1,4;-0,12;-0,68;0;0;0;24,8;19,8;25,8;21,6;16,6;17,1;17,4;16,8;-11,7;25,4;1384
2021-07-02 03:00:00;13,8;100803;98;0,0096;0,0;0,6;262;1,4;-0,08;-0,63;3;0;0;24,9;19,8;25,8;21,6;16,5;17,0;17,3;16,8;-11,7;25,7;1408
2021-07-02 04:00:00;13,9;100830;99;0,0097;0,0;0,6;261;1,6;-0,1;-0,62;50;0;0;24,9;19,9;25,7;21,6;16,5;16,9;17,3;16,8;-11,7;25,5;1347
2021-07-02 05:00:00;14,2;100853;98;0,0099;0,0;0,7;264;2,3;-0,09;-0,71;92;0;0;25,0;19,9;25,7;21,6;16,5;16,9;17,3;16,8;-11,7;25,6;1412
2021-07-02 06:00:00;14,7;100872;97;0,01;0,0;0,5;283;1,5;0,13;-0,47;130;0;0;25,0;19,9;25,7;21,6;16,6;16,8;17,2;16,7;-11,7;25,7;1350
2021-07-02 07:00:00;15,4;100873;94;0,0102;0,0;0,8;263;2,1;-0,1;-0,74;253;0;0;25,1;19,9;25,7;21,6;16,8;16,8;17,2;16,7;-11,7;25,8;1359
2021-07-02 08:00:00;16,4;100898;89;0,0102;0,0;0,7;258;1,9;-0,13;-0,68;342;0;0;25,1;19,9;25,7;21,6;17,1;16,9;17,1;16,7;-11,7;26,0;1340
2021-07-02 09:00:00;16,7;100917;82;0,0097;0,0;0,6;252;1,7;-0,18;-0,6;270;0;0;25,0;19,9;25,6;21,6;17,6;17,1;17,1;16,7;-11,7;26,2;1373
2021-07-02 10:00:00;17,4;100938;79;0,0097;0,0;0,8;250;2,1;-0,26;-0,74;399;0;0;25,0;19,9;25,6;21,6;17,9;17,3;17,1;16,7;-11,7;26,2;1371
2021-07-02 11:00:00;17,9;100970;76;0,0097;0,0;0,7;253;1,6;-0,2;-0,64;388;0;0;24,9;19,9;25,6;21,6;18,3;17,5;17,2;16,6;-11,7;26,1;1361
2021-07-02 12:00:00;19,0;100940;72;0,0097;0,0;0,7;294;2,4;0,31;-0,47;429;0;0;24,8;19,9;25,5;21,6;18,7;17,7;17,2;16,6;-11,7;26,2;1418
2021-07-02 13:00:00;19,0;100933;71;0,0096;0,0;0,8;309;2,3;0,55;-0,4;347;0;0;24,8;19,9;25,5;21,6;19,2;18,0;17,3;16,6;-11,7;26,1;1332
2021-07-02 14:00:00;19,7;100930;68;0,0097;0,0;1,0;340;3,3;0,91;-0,3;430;0;0;24,7;19,9;25,5;21,6;19,5;18,3;17,4;16,6;-11,7;25,9;1317
2021-07-02 15:00:00;20,3;100933;68;0,0099;0,0;0,9;335;2,8;0,82;-0,35;470;0;0;24,6;19,9;25,4;21,6;20,0;18,5;17,4;16,6;-11,7;25,8;1396
2021-07-02 16:00:00;20,0;100947;68;0,0098;0,0;0,8;340;2,5;0,77;-0,27;184;0;0;24,6;19,9;25,4;21,6;20,4;18,8;17,5;16,6;-11,7;25,8;1355
2021-07-02 17:00:00;20,2;100937;70;0,0103;0,0;0,6;338;1,8;0,54;-0,21;251;0;0;24,6;19,9;25,4;21,6;20,3;19,0;17,6;16,6;-11,7;25,8;1358
2021-07-02 18:00:00;20,5;100922;70;0,0104;0,0;0,3;294;1,1;0,16;-0,26;128;0;0;24,6;19,9;25,4;21,6;20,0;19,1;17,7;16,5;-11,7;25,8;1377
2021-07-02 19:00:00;18,9;100930;76;0,0103;0,0;0,2;308;0,4;0,1;-0,13;23;0;0;24,6;19,9;25,3;21,6;19,6;19,0;17,8;16,5;-11,7;25,8;1329
2021-07-02 20:00:00;16,3;100948;86;0,0099;0,0;0,2;300;0,3;0,07;-0,12;1;0;0;24,7;19,9;25,3;21,6;19,0;18,9;17,9;16,5;-11,7;25,8;1303
2021-07-02 21:00:00;15,1;100987;93;0,0098;0,0;0,2;272;0,4;0,02;-0,19;0;0;0;24,7;19,9;25,3;21,6;18,5;18,7;17,9;16,5;-11,7;25,7;1356
2021-07-02 22:00:00;14,4;100967;96;0,0097;0,0;0,3;246;0,4;-0,1;-0,24;0;0;0;24,7;19,9;25,2;21,6;18,0;18,4;17,9;16,5;-11,7;25,9;1388
2021-07-02 23:00:00;13,9;100937;98;0,0096;0,0;0,3;260;0,5;0,0;-0,16;0;0;0;24,7;19,9;25,2;21,6;17,5;18,1;17,9;16,5;-11,7;25,9;1338
2021-07-03 00:00:00;13,4;100925;97;0,0092;0,0;0,3;258;0,5;-0,09;-0,22;0;0;0;24,7;19,9;25,2;21,6;17,2;17,8;17,8;16,5;-11,7;25,8;1383
2021-07-03 01:00:00;13,0;100927;99;0,0092;0,0;0,3;242;0,4;-0,12;-0,24;0;0;0;24,7;19,9;25,2;21,6;16,8;17,6;17,7;16,6;-11,7;25,9;1393
2021-07-03 02:00:00;12,8;100915;98;0,009;0,0;0,2;241;0,4;-0,1;-0,17;0;0;0;24,7;19,9;25,1;21,6;16,5;17,4;17,6;16,6;-11,7;25,9;1437
2021-07-03 03:00:00;12,4;100900;99;0,0088;0,0;0,2;267;0,4;-0,01;-0,21;4;0;0;24,7;19,9;25,1;21,6;16,2;17,1;17,5;16,6;-11,7;25,8;1397
2021-07-03 04:00:00;12,6;100888;100;0,009;0,0;0,2;218;0,4;-0,16;-0,14;70;0;0;24,7;19,9;25,1;21,6;16,0;16,9;17,5;16,6;-11,7;26,1;1357
2021-07-03 05:00:00;14,8;100843;100;0,0104;0,0;0,3;185;0,7;-0,25;-0,02;227;0;0;24,7;19,9;25,1;21,6;16,0;16,7;17,4;16,6;-11,7;25,9;1426
2021-07-03 06:00:00;17,5;100878;94;0,0117;0,0;0,3;225;0,7;-0,22;-0,22;246;0;0;24,7;19,9;25,0;21,6;16,2;16,6;17,3;16,6;-11,7;25,9;1325
2021-07-03 07:00:00;18,8;100863;87;0,0118;0,0;0,8;104;1,8;-0,14;0,73;492;0;0;24,7;19,9;25,0;21,6;16,7;16,7;17,2;16,6;-11,7;25,9;1356
2021-07-03 08:00:00;20,3;100832;75;0,011;0,0;0,7;95;2,4;-0,03;0,71;526;0;0;24,6;19,9;25,0;21,5;17,4;16,8;17,1;16,6;-11,7;25,6;1398
2021-07-03 09:00:00;21,4;100807;69;0,0109;0,0;0,5;121;1,5;0,08;0,04;538;0;0;24,4;19,8;25,0;21,5;18,2;17,1;17,1;16,5;-11,7;25,6;1311
2021-07-03 10:00:00;22,4;100758;61;0,0103;0,0;0,7;227;2,2;0,16;0,21;829;0;0;24,1;19,8;24,9;21,5;19,0;17,6;17,1;16,5;-11,8;25,7;1382
2021-07-03 11:00:00;23,1;100723;58;0,0101;0,0;0,9;70;2,4;0,21;0,77;866;0;0;23,7;19,7;24,9;21,5;19,7;18,0;17,2;16,5;-11,8;25,7;1409
2021-07-03 12:00:00;23,6;100665;57;0,0103;0,0;0,5;136;1,8;-0,22;0,3;668;0;0;23,4;19,6;24,9;21,5;20,5;18,5;17,3;16,5;-11,8;25,4;1403
2021-07-03 13:00:00;23,9;100627;56;0,0103;0,0;0,7;73;2,1;0,08;0,5;605;0;0;23,1;19,6;24,8;21,5;21,1;19,0;17,4;16,5;-11,8;25,5;1368
2021-07-03 14:00:00;24,9;100592;53;0,0103;0,0;0,6;240;1,8;0,25;-0,12;693;0;0;22,8;19,5;24,8;21,5;21,8;19,5;17,6;16,5;-11,8;25,7;1384
2021-07-03 15:00:00;25,0;100560;52;0,0103;0,0;0,6;281;1,9;0,31;-0,1;496;0;0;22,6;19,5;24,8;21,5;22,5;20,0;17,8;16,5;-11,8;25,9;1332
2021-07-03 16:00:00;24,9;100520;53;0,0104;0,0;0,3;193;1,0;0,29;0,02;324;0;0;22,5;19,5;24,8;21,5;22,7;20,4;18,0;16,5;-11,8;26,1;1458
2021-07-03 17:00:00;24,6;100490;58;0,0112;0,0;0,2;118;0,6;0,14;0,0;101;0;0;22,5;19,5;24,7;21,5;22,5;20,6;18,2;16,5;-11,8;26,0;1375
2021-07-03 18:00:00;23,0;100495;64;0,0111;0,0;0,2;319;0,9;0,14;-0,18;34;0;0;22,6;19,5;24,7;21,5;22,1;20,7;18,4;16,5;-11,8;26,1;1420
2021-07-03 19:00:00;21,5;100507;66;0,0105;0,0;0,3;295;1,1;0,13;-0,29;8;0;0;22,6;19,5;24,7;21,5;21,6;20,6;18,5;16,4;-11,8;26,1;1470
2021-07-03 20:00:00;20,4;100523;70;0,0104;0,0;0,3;292;1,0;0,1;-0,28;0;0;0;22,6;19,4;24,7;21,5;21,1;20,4;18,6;16,5;-11,8;26,0;1380
2021-07-03 21:00:00;19,1;100560;79;0,0108;0,0;0,4;278;1,7;0,05;-0,41;0;0;0;22,7;19,5;24,7;21,5;20,6;20,2;18,7;16,5;-11,8;26,0;1360
2021-07-03 22:00:00;17,8;100555;89;0,0113;0,73;0,4;288;0,9;0,11;-0,34;0;0;0;22,7;19,4;24,6;21,5;20,2;20,0;18,7;16,5;-11,8;25,7;1411
2021-07-03 23:00:00;17,1;100500;94;0,0114;0,47;0,2;322;0,5;0,14;-0,09;0;0;0;22,7;19,4;24,6;21,5;19,9;19,8;18,7;16,5;-11,8;25,9;1481
2021-07-04 00:00:00;16,8;100452;97;0,0115;0,14;0,2;267;0,4;-0,0;-0,14;0;0;0;22,7;19,4;24,6;21,5;19,6;19,6;18,7;16,6;-11,8;26,0;1357
2021-07-04 01:00:00;16,8;100413;98;0,0116;0,02;0,3;151;1,1;-0,26;0,17;0;0;0;22,8;19,4;24,6;21,5;19,3;19,4;18,6;16,6;-11,8;26,1;1381
2021-07-04 02:00:00;16,7;100385;98;0,0116;0,15;0,3;226;0,7;-0,08;-0,06;0;0;0;22,8;19,4;24,5;21,5;19,1;19,2;18,6;16,6;-11,8;26,3;1388
2021-07-04 03:00:00;16,6;100377;99;0,0117;0,49;0,4;174;0,8;0,08;0,1;1;0;0;22,8;19,4;24,5;21,5;18,9;19,0;18,5;16,6;-11,8;26,3;1366
2021-07-04 04:00:00;16,8;100360;100;0,0118;0,14;0,2;242;0,5;0,02;-0,06;13;0;0;22,8;19,4;24,5;21,5;18,8;18,9;18,5;16,7;-11,8;26,1;1456
2021-07-04 05:00:00;16,9;100360;100;0,012;0,02;0,3;209;0,9;-0,16;-0,08;37;0;0;22,8;19,4;24,5;21,5;18,7;18,7;18,4;16,7;-11,8;26,3;1432
2021-07-04 06:00:00;17,2;100363;100;0,0122;0,82;0,5;148;1,4;-0,25;0,4;44;0;0;22,9;19,4;24,5;21,5;18,6;18,7;18,3;16,7;-11,9;26,4;1386
2021-07-04 07:00:00;17,4;100337;100;0,0124;0,0;0,8;130;2,2;-0,55;0,64;126;0;0;22,9;19,4;24,4;21,5;18,6;18,6;18,3;16,7;-11,9;26,6;1439
2021-07-04 08:00:00;18,4;100290;99;0,013;0,0;1,2;117;3,0;-0,51;1,02;303;0;0;23,0;19,4;24,4;21,5;18,8;18,6;18,2;16,7;-11,9;26,8;1449
2021-07-04 09:00:00;20,6;100230;92;0,0139;0,0;1,4;119;4,1;-0,68;1,22;584;0;0;23,0;19,4;24,4;21,5;19,4;18,7;18,2;16,7;-11,9;26,8;1484
2021-07-04 10:00:00;21,6;100195;83;0,0133;0,0;1,3;120;3,5;-0,63;1,09;570;0;0;22,8;19,4;24,4;21,5;20,2;18,9;18,2;16,7;-11,9;26,7;1342
2021-07-04 11:00:00;23,0;100110;75;0,0132;0,0;1,2;90;3,4;0,02;1,16;656;2;6;22,6;19,3;24,4;21,5;21,0;19,3;18,2;16,7;-11,9;26,7;1409
2021-07-04 12:00:00;21,4;100085;80;0,0129;5,9;0,9;115;2,9;-0,37;0,76;228;11;6;22,8;19,3;24,4;21,5;21,6;19,7;18,3;16,7;-11,9;27,3;1400
2021-07-04 13:00:00;19,4;100050;99;0,014;0,07;1,0;162;2,7;-0,85;0,37;419;8;10;24,3;19,3;24,6;21,5;21,5;20,0;18,4;16,7;-11,9;27,3;1337
2021-07-04 14:00:00;18,1;100055;95;0,0123;0,0;1,0;160;2,7;-0,8;0,44;255;4;17;25,1;19,3;24,8;21,5;21,5;20,2;18,6;16,7;-11,9;27,4;1430
2021-07-04 15:00:00;18,6;100100;94;0,0125;0,0;0,6;233;2,0;-0,29;-0,49;182;0;0;25,5;19,4;25,0;21,5;21,3;20,3;18,7;16,7;-11,9;27,4;1410
2021-07-04 16:00:00;18,3;100060;94;0,0123;0,0;0,6;270;1,8;0,01;-0,57;136;0;0;25,7;19,5;25,0;21,5;21,1;20,3;18,7;16,8;-11,9;27,3;1438
2021-07-04 17:00:00;17,6;100033;92;0,0116;0,0;0,3;238;1,0;0,04;-0,11;78;0;0;25,8;19,6;25,1;21,5;20,8;20,2;18,8;16,7;-11,9;27,8;1396
2021-07-04 18:00:00;17,5;100075;93;0,0116;0,0;0,3;292;0,9;0,05;-0,27;40;0;0;25,9;19,6;25,1;21,5;20,5;20,1;18,9;16,8;-11,9;27,8;1388
2021-07-04 19:00:00;17,3;100110;94;0,0115;0,0;0,4;270;1,3;0,01;-0,41;15;0;0;26,0;19,7;25,2;21,5;20,2;20,0;18,9;16,8;-11,9;28,0;1429
2021-07-04 20:00:00;16,7;100165;93;0,0111;0,0;0,7;259;2,3;-0,12;-0,64;0;0;0;26,1;19,7;25,2;21,5;19,9;19,8;18,9;16,8;-11,9;28,1;1426
2021-07-04 21:00:00;15,8;100177;93;0,0104;0,0;0,4;259;1,2;-0,1;-0,42;0;0;0;26,1;19,8;25,2;21,5;19,5;19,6;18,8;16,8;-11,8;28,3;1418
2021-07-04 22:00:00;15,2;100170;96;0,0103;0,0;0,4;260;1,1;-0,06;-0,36;0;0;0;26,2;19,8;25,2;21,5;19,1;19,4;18,8;16,8;-11,8;28,7;1460
2021-07-04 23:00:00;14,8;100183;97;0,0102;0,0;0,3;259;1,1;-0,06;-0,33;0;0;0;26,2;19,8;25,2;21,5;18,8;19,2;18,8;16,8;-11,8;28,6;1297
2021-07-05 00:00:00;14,6;100145;99;0,0102;0,0;0,3;260;1,0;-0,06;-0,32;0;0;0;26,2;19,9;25,2;21,5;18,5;19,0;18,7;16,8;-11,8;28,5;1405
2021-07-05 01:00:00;13,9;100103;99;0,0098;0,0;0,2;270;0,6;0,0;-0,24;0;0;0;26,3;19,9;25,2;21,4;18,2;18,8;18,6;16,9;-11,8;28,3;1370
2021-07-05 02:00:00;13,5;100050;99;0,0096;0,0;0,4;222;0,7;-0,26;-0,23;0;0;0;26,3;19,9;25,2;21,4;17,9;18,5;18,5;16,9;-11,8;28,3;1458
2021-07-05 03:00:00;13,4;100013;99;0,0095;0,02;0,4;217;0,7;-0,29;-0,22;3;0;0;26,3;20,0;25,2;21,4;17,7;18,3;18,4;16,9;-11,8;28,4;1446
2021-07-05 04:00:00;14,2;100012;100;0,0101;0,02;0,4;216;0,9;-0,35;-0,25;117;0;0;26,4;20,0;25,1;21,4;17,5;18,1;18,4;16,9;-11,8;28,7;1316
2021-07-05 05:00:00;16,0;100013;97;0,011;0,27;0,7;257;1,8;-0,14;-0,64;87;0;0;26,4;20,0;25,1;21,4;17,4;18,0;18,3;16,9;-11,8;28,9;1458
2021-07-05 06:00:00;14,6;100052;99;0,0102;2,41;0,6;278;1,7;0,11;-0,55;40;0;0;27,1;20,0;25,1;21,4;17,4;17,9;18,2;16,9;-11,8;28,7;1366
2021-07-05 07:00:00;14,0;100067;100;0,01;0,09;0,4;283;1,0;0,08;-0,35;96;0;0;28,1;20,0;25,2;21,4;17,4;17,8;18,1;16,9;-11,8;28,6;1419
2021-07-05 08:00:00;14,5;100092;100;0,0103;0,0;0,4;277;1,2;0,05;-0,42;190;0;0;28,5;20,1;25,3;21,4;17,4;17,7;18,0;16,9;-11,8;28,5;1411
2021-07-05 09:00:00;15,3;100127;99;0,0108;0,0;0,7;268;2,0;-0,03;-0,73;341;0;0;28,7;20,2;25,5;21,4;17,6;17,7;17,9;16,9;-11,8;28,7;1340
2021-07-05 10:00:00;16,8;100135;93;0,0111;0,0;0,6;276;2,0;0,06;-0,6;464;0;0;28,7;20,3;25,5;21,4;17,9;17,8;17,9;16,9;-11,8;28,8;1407
2021-07-05 11:00:00;18,2;100133;83;0,0108;0,0;0,7;275;2,3;0,07;-0,69;452;0;0;28,7;20,3;25,6;21,4;18,4;17,9;17,9;16,9;-11,8;28,9;1427
2021-07-05 12:00:00;18,0;100152;80;0,0103;0,0;0,6;270;1,9;-0,0;-0,56;198;0;0;28,6;20,3;25,6;21,4;18,8;18,1;17,9;16,9;-11,7;28,4;1441
2021-07-05 13:00:00;17,7;100147;83;0,0104;0,0;0,5;267;1,7;-0,02;-0,54;432;0;0;28,6;20,4;25,6;21,4;18,9;18,3;17,9;16,8;-11,7;28,4;1357
2021-07-05 14:00:00;19,5;100122;76;0,0107;0,0;0,6;266;2,1;-0,02;-0,52;528;0;0;28,4;20,4;25,6;21,4;19,3;18,5;17,9;16,8;-11,7;28,2;1368
2021-07-05 15:00:00;19,5;100093;75;0,0106;0,0;0,6;207;1,9;-0,46;-0,22;313;0;0;28,3;20,4;25,6;21,4;19,8;18,7;18,0;16,8;-11,7;28,3;1344
2021-07-05 16:00:00;19,5;100075;74;0,0105;0,0;0,5;220;1,8;-0,39;-0,34;272;0;0;28,2;20,4;25,6;21,4;20,0;19,0;18,0;16,8;-11,7;28,2;1389
2021-07-05 17:00:00;19,4;100060;74;0,0104;0,0;0,5;211;1,7;-0,41;-0,26;197;0;0;28,1;20,4;25,6;21,4;20,0;19,1;18,1;16,8;-11,7;27,9;1444
2021-07-05 18:00:00;18,8;100060;76;0,0103;0,0;0,2;206;0,7;-0,22;-0,09;40;0;0;28,1;20,4;25,6;21,4;19,9;19,2;18,1;16,8;-11,7;27,9;1448
2021-07-05 19:00:00;18,1;100017;80;0,0104;0,0;0,3;137;1,0;-0,18;0,23;8;0;0;28,0;20,4;25,5;21,4;19,6;19,2;18,2;16,8;-11,7;27,8;1467
2021-07-05 20:00:00;17,6;100020;80;0,0101;0,0;0,2;130;0,9;-0,15;0,16;0;0;0;28,0;20,4;25,5;21,4;19,3;19,1;18,2;16,8;-11,7;27,8;1408
2021-07-05 21:00:00;17,2;99992;83;0,0101;0,0;0,3;120;1,2;-0,16;0,25;0;0;0;28,0;20,5;25,5;21,4;19,0;19,0;18,2;16,8;-11,7;27,5;1419
2021-07-05 22:00:00;17,1;99940;85;0,0104;0,0;0,5;143;1,8;-0,39;0,3;0;0;0;28,0;20,5;25,5;21,4;18,8;18,8;18,2;16,8;-11,7;27,5;1467
2021-07-05 23:00:00;17,0;99875;88;0,0107;0,0;0,6;153;1,7;-0,52;0,32;0;0;0;28,0;20,5;25,5;21,4;18,6;18,7;18,2;16,8;-11,7;27,4;1502
2021-07-06 00:00:00;17,1;99823;92;0,0112;0,0;0,5;200;0,9;-0,44;-0,17;0;0;0;28,0;20,5;25,5;21,4;18,4;18,5;18,2;16,8;-11,7;27,5;1469
2021-07-06 01:00:00;17,4;99785;91;0,0114;0,0;0,6;201;1,1;-0,52;-0,21;0;0;0;27,9;20,5;25,4;21,4;18,2;18,4;18,1;16,8;-11,7;27,6;1455
2021-07-06 02:00:00;17,7;99743;91;0,0116;0,0;0,6;207;1,1;-0,53;-0,25;0;0;0;27,9;20,5;25,4;21,4;18,1;18,3;18,1;16,8;-11,7;27,4;1451
2021-07-06 03:00:00;17,3;99703;95;0,0118;0,31;0,4;203;0,9;-0,29;-0,08;1;0;0;28,0;20,5;25,4;21,4;18,1;18,2;18,1;16,8;-11,7;27,4;1519
2021-07-06 04:00:00;17,2;99600;95;0,0117;0,0;0,6;159;2,1;-0,57;0,25;61;0;0;28,0;20,5;25,4;21,4;18,0;18,1;18,0;16,8;-11,7;27,0;1469
2021-07-06 05:00:00;18,3;99570;90;0,012;0,0;0,7;179;1,6;-0,71;-0,0;89;0;0;28,0;20,5;25,4;21,4;18,0;18,1;18,0;16,8;-11,7;26,8;1501
2021-07-06 06:00:00;19,4;99603;85;0,0119;0,0;0,8;196;2,2;-0,77;-0,23;111;0;0;28,0;20,6;25,4;21,4;18,1;18,0;17,9;16,8;-11,7;27,0;1445
2021-07-06 07:00:00;19,7;99548;82;0,0118;0,0;0,9;224;3,6;-0,64;-0,62;85;0;0;28,0;20,6;25,4;21,4;18,2;18,0;17,9;16,8;-11,7;27,1;1498
2021-07-06 08:00:00;19,5;99567;79;0,0113;0,0;0,7;245;2,7;-0,3;-0,65;121;0;0;28,0;20,6;25,4;21,4;18,2;18,1;17,9;16,8;-11,7;27,0;1555
2021-07-06 09:00:00;19,8;99583;79;0,0114;0,0;0,9;237;3,2;-0,51;-0,8;261;0;0;27,9;20,5;25,3;21,4;18,3;18,1;17,9;16,8;-11,7;26,8;1437
2021-07-06 10:00:00;20,1;99610;78;0,0116;0,0;1,2;241;5,0;-0,57;-1,09;247;0;0;27,8;20,5;25,3;21,4;18,5;18,1;17,8;16,8;-11,7;26,8;1487
2021-07-06 11:00:00;20,9;99650;70;0,0109;0,0;1,6;252;4,9;-0,49;-1,54;508;0;0;27,6;20,5;25,3;21,4;18,7;18,2;17,8;16,8;-11,7;26,8;1471
2021-07-06 12:00:00;21,6;99687;61;0,0098;0,0;1,6;250;5,3;-0,52;-1,49;600;0;0;27,3;20,4;25,3;21,4;19,0;18,3;17,8;16,8;-11,7;26,8;1452
2021-07-06 13:00:00;21,9;99760;59;0,0096;0,0;1,5;252;4,8;-0,47;-1,47;487;0;0;26,9;20,4;25,2;21,4;19,4;18,5;17,9;16,7;-11,7;26,8;1470
2021-07-06 14:00:00;21,6;99833;60;0,0098;0,0;1,3;259;4,3;-0,23;-1,25;373;0;0;26,8;20,3;25,2;21,4;19,7;18,7;17,9;16,7;-11,7;26,8;1446
2021-07-06 15:00:00;21,4;99910;59;0,0095;0,0;1,3;262;3,8;-0,17;-1,29;408;0;0;26,7;20,3;25,2;21,4;19,9;18,9;18,0;16,7;-11,7;26,6;1486
2021-07-06 16:00:00;21,3;99940;54;0,0086;0,0;1,4;262;4,4;-0,18;-1,38;452;0;0;26,5;20,3;25,2;21,4;20,1;19,1;18,0;16,7;-11,7;26,6;1503
2021-07-06 17:00:00;21,0;99993;53;0,0083;0,0;1,2;260;3,4;-0,21;-1,18;290;0;0;26,4;20,2;25,2;21,4;20,3;19,2;18,1;16,7;-11,7;26,5;1407
2021-07-06 18:00:00;19,4;100097;58;0,0082;0,0;1,1;271;3,8;0,01;-1,07;62;0;0;26,3;20,2;25,1;21,4;20,0;19,3;18,2;16,7;-11,8;26,3;1429
2021-07-06 19:00:00;17,0;100175;72;0,0086;0,0;0,7;272;2,1;0,03;-0,66;30;0;0;26,2;20,2;25,1;21,4;19,5;19,2;18,2;16,7;-11,8;26,4;1489
2021-07-06 20:00:00;16,3;100240;74;0,0085;0,0;0,6;260;1,7;-0,09;-0,57;1;0;0;26,1;20,2;25,1;21,4;19,0;19,0;18,2;16,7;-11,8;26,4;1459
2021-07-06 21:00:00;15,3;100310;79;0,0085;0,0;0,4;267;1,3;-0,02;-0,4;0;0;0;26,1;20,2;25,1;21,4;18,6;18,8;18,2;16,7;-11,8;26,5;1390
2021-07-06 22:00:00;14,2;100352;85;0,0086;0,0;0,4;270;1,1;-0,01;-0,36;0;0;0;26,1;20,2;25,0;21,4;18,2;18,5;18,2;16,7;-11,8;26,4;1429
2021-07-06 23:00:00;13,4;100407;89;0,0085;0,0;0,3;259;0,9;-0,06;-0,33;0;0;0;26,1;20,2;25,0;21,4;17,8;18,3;18,1;16,7;-11,8;26,3;1448
2021-07-07 00:00:00;12,8;100453;92;0,0084;0,0;0,3;248;0,7;-0,11;-0,27;0;0;0;26,0;20,2;25,0;21,4;17,4;18,1;18,1;16,7;-11,8;26,4;1423
2021-07-07 01:00:00;12,6;100453;93;0,0084;0,0;0,3;255;0,7;-0,07;-0,27;0;0;0;26,0;20,2;25,0;21,4;17,1;17,8;18,0;16,7;-11,8;26,3;1394
2021-07-07 02:00:00;12,6;100452;93;0,0084;0,0;0,4;230;0,7;-0,22;-0,27;0;0;0;26,0;20,2;25,0;21,4;16,8;17,6;17,9;16,7;-11,8;26,1;1443
2021-07-07 03:00:00;12,2;100460;94;0,0083;0,0;0,4;225;0,6;-0,25;-0,25;2;0;0;26,0;20,2;24,9;21,4;16,6;17,4;17,8;16,7;-11,8;26,0;1431
2021-07-07 04:00:00;12,7;100500;96;0,0087;0,0;0,3;225;0,7;-0,19;-0,19;41;0;0;26,0;20,2;24,9;21,4;16,4;17,2;17,7;16,7;-11,8;26,0;1450
2021-07-07 05:00:00;14,6;100512;94;0,0097;0,0;0,4;206;0,9;-0,3;-0,11;149;0;0;26,0;20,2;24,9;21,4;16,4;17,0;17,6;16,7;-11,8;26,0;1448
2021-07-07 06:00:00;17,6;100530;84;0,0104;0,0;0,6;217;1,8;-0,41;-0,33;270;0;0;26,0;20,2;24,9;21,3;16,5;17,0;17,5;16,7;-11,8;25,9;1329
2021-07-07 07:00:00;18,3;100577;78;0,0101;0,0;0,7;251;2,7;-0,22;-0,64;291;0;0;25,9;20,2;24,9;21,3;16,8;17,0;17,4;16,7;-11,8;25,7;1397
2021-07-07 08:00:00;19,7;100612;74;0,0106;0,0;0,7;252;2,4;-0,22;-0,61;458;0;0;25,8;20,2;24,8;21,3;17,2;17,0;17,4;16,7;-11,8;25,7;1385
2021-07-07 09:00:00;21,9;100620;66;0,0108;0,0;0,8;239;2,3;-0,39;-0,69;693;0;0;25,5;20,1;24,8;21,3;17,8;17,2;17,3;16,7;-11,8;25,8;1362
2021-07-07 10:00:00;22,7;100650;59;0,0102;0,0;0,8;246;3,2;-0,31;-0,68;628;0;0;25,2;20,0;24,8;21,3;18,5;17,5;17,3;16,7;-11,8;25,8;1401
2021-07-07 11:00:00;22,2;100693;56;0,0092;0,0;0,9;255;3,2;-0,21;-0,83;474;0;0;24,9;20,0;24,7;21,3;19,0;17,8;17,4;16,7;-11,8;25,7;1341
2021-07-07 12:00:00;22,0;100732;59;0,0097;0,0;0,6;223;2,5;-0,43;-0,4;457;0;0;24,7;19,9;24,7;21,3;19,2;18,1;17,4;16,7;-11,8;25,7;1391
2021-07-07 13:00:00;23,0;100743;56;0,0097;0,0;0,7;262;2,9;-0,1;-0,67;519;0;0;24,4;19,8;24,7;21,3;19,6;18,4;17,5;16,6;-11,8;25,8;1416
2021-07-07 14:00:00;23,4;100743;53;0,0095;0,0;0,7;268;3,0;-0,01;-0,74;570;0;0;24,2;19,8;24,7;21,3;20,0;18,6;17,6;16,6;-11,9;25,6;1402
2021-07-07 15:00:00;22,9;100792;55;0,0096;0,0;0,6;276;2,4;0,06;-0,62;412;0;0;24,0;19,7;24,6;21,3;20,5;18,9;17,7;16,6;-11,9;25,6;1390
2021-07-07 16:00:00;23,2;100800;54;0,0095;0,0;0,5;266;2,4;-0,03;-0,51;399;0;0;23,8;19,7;24,6;21,3;20,8;19,2;17,8;16,6;-11,9;25,4;1383
2021-07-07 17:00:00;23,0;100833;54;0,0093;0,0;0,4;289;1,6;0,14;-0,39;239;0;0;23,8;19,6;24,6;21,3;20,8;19,4;17,9;16,6;-11,9;25,4;1331
2021-07-07 18:00:00;22,6;100878;54;0,0092;0,0;0,3;306;1,2;0,14;-0,23;139;0;0;23,8;19,6;24,6;21,3;20,6;19,5;18,0;16,6;-11,9;25,4;1403
2021-07-07 19:00:00;20,6;100927;62;0,0093;0,0;0,1;279;0,2;0,01;-0,04;18;0;0;23,9;19,6;24,5;21,3;20,2;19,5;18,1;16,6;-11,9;25,1;1385
2021-07-07 20:00:00;18,9;100973;66;0,0089;0,0;0,1;253;0,2;0,0;-0,09;1;0;0;23,7;19,6;24,5;21,3;19,7;19,3;18,1;16,6;-11,9;25,0;1341
2021-07-07 21:00:00;17,7;101010;74;0,0093;0,0;0,3;258;0,5;-0,06;-0,29;0;0;0;23,7;19,6;24,5;21,3;19,2;19,1;18,2;16,6;-11,9;24,8;1326
2021-07-07 22:00:00;16,7;101050;81;0,0095;0,0;0,3;268;0,5;-0,02;-0,25;0;0;0;23,7;19,6;24,5;21,3;18,8;18,9;18,2;16,6;-11,9;24,8;1373
2021-07-07 23:00:00;15,8;101080;86;0,0095;0,0;0,3;254;0,5;-0,09;-0,28;0;0;0;23,7;19,6;24,5;21,3;18,4;18,7;18,2;16,6;-11,9;24,6;1357
2021-07-08 00:00:00;15,0;101103;89;0,0093;0,0;0,3;199;1,2;-0,31;-0,12;0;0;0;23,7;19,6;24,5;21,3;18,0;18,4;18,1;16,6;-11,9;24,4;1328
2021-07-08 01:00:00;14,5;101098;90;0,0092;0,0;0,3;293;0,6;0,1;-0,21;0;0;0;23,7;19,6;24,4;21,3;17,7;18,2;18,0;16,6;-11,9;24,3;1421
2021-07-08 02:00:00;14,0;101100;93;0,0091;0,0;0,3;263;0,5;-0,03;-0,27;0;0;0;23,7;19,6;24,4;21,3;17,4;18,0;18,0;16,6;-11,9;24,3;1378
2021-07-08 03:00:00;12,9;101090;96;0,0088;0,0;0,3;273;0,5;-0,04;-0,24;1;0;0;23,6;19,6;24,4;21,3;17,1;17,8;17,9;16,6;-12,0;24,1;1435
2021-07-08 04:00:00;13,3;101105;96;0,009;0,0;0,3;246;0,5;-0,11;-0,27;24;0;0;23,6;19,6;24,4;21,3;16,8;17,6;17,8;16,6;-12,0;24,1;1352
2021-07-08 05:00:00;14,6;101133;95;0,0098;0,0;0,3;227;0,5;-0,24;-0,25;91;0;0;23,7;19,6;24,4;21,3;16,7;17,4;17,7;16,7;-12,0;24,1;1380
2021-07-08 06:00:00;16,1;101153;94;0,0106;0,0;0,3;225;0,6;-0,19;-0,19;150;0;0;23,7;19,6;24,3;21,3;16,7;17,2;17,6;16,7;-12,0;23,9;1377